Year,Month,Day,Hour,Minute,Value (Times are PST for windspeed in km/hr)
2004,10,08,00,00,5.80
2004,10,08,00,01,4.20
2004,10,08,00,02,4.20
2004,10,08,00,03,4.30
2004,10,08,00,04,5.50
2004,10,08,00,05,6.00
2004,10,08,00,06,2.20
2004,10,08,00,07,3.60
2004,10,08,00,08,8.10
2004,10,08,00,09,5.30
2004,10,08,00,10,3.30
2004,10,08,00,11,3.20
2004,10,08,00,12,5.90
2004,10,08,00,13,7.20
2004,10,08,00,14,7.60
2004,10,08,00,15,4.80
2004,10,08,00,16,7.10
2004,10,08,00,17,7.80
2004,10,08,00,18,7.60
2004,10,08,00,19,7.10
2004,10,08,00,20,7.00
2004,10,08,00,21,7.00
2004,10,08,00,22,6.80
2004,10,08,00,23,9.50
2004,10,08,00,24,7.60
2004,10,08,00,25,7.70
2004,10,08,00,26,5.60
2004,10,08,00,27,7.80
2004,10,08,00,28,8.50
2004,10,08,00,29,11.00
2004,10,08,00,30,10.10
2004,10,08,00,31,8.40
2004,10,08,00,32,7.10
2004,10,08,00,33,6.10
2004,10,08,00,34,6.40
2004,10,08,00,35,7.60
2004,10,08,00,36,5.90
2004,10,08,00,37,10.00
2004,10,08,00,38,7.70
2004,10,08,00,39,10.70
2004,10,08,00,40,4.30
2004,10,08,00,41,4.90
2004,10,08,00,42,4.10
2004,10,08,00,43,1.70
2004,10,08,00,44,0.90
2004,10,08,00,45,0.70
2004,10,08,00,46,2.00
2004,10,08,00,47,2.90
2004,10,08,00,48,1.30
2004,10,08,00,49,1.80
2004,10,08,00,50,0.10
2004,10,08,00,51,0.00
2004,10,08,00,52,2.90
2004,10,08,00,53,6.20
2004,10,08,00,54,2.90
2004,10,08,00,55,1.20
2004,10,08,00,56,1.90
2004,10,08,00,57,3.30
2004,10,08,00,58,2.80
2004,10,08,00,59,1.90
2004,10,08,01,00,1.50
2004,10,08,01,01,1.10
2004,10,08,01,02,1.30
2004,10,08,01,03,0.40
2004,10,08,01,04,1.00
2004,10,08,01,05,2.20
2004,10,08,01,06,1.30
2004,10,08,01,07,2.10
2004,10,08,01,08,1.00
2004,10,08,01,09,0.00
2004,10,08,01,10,0.00
2004,10,08,01,11,1.40
2004,10,08,01,12,2.20
2004,10,08,01,13,4.00
2004,10,08,01,14,4.20
2004,10,08,01,15,4.30
2004,10,08,01,16,4.90
2004,10,08,01,17,1.10
2004,10,08,01,18,3.30
2004,10,08,01,19,2.30
2004,10,08,01,20,3.30
2004,10,08,01,21,7.30
2004,10,08,01,22,7.90
2004,10,08,01,23,3.80
2004,10,08,01,24,3.30
2004,10,08,01,25,4.60
2004,10,08,01,26,4.20
2004,10,08,01,27,7.80
2004,10,08,01,28,9.00
2004,10,08,01,29,4.20
2004,10,08,01,30,2.70
2004,10,08,01,31,3.00
2004,10,08,01,32,2.80
2004,10,08,01,33,5.50
2004,10,08,01,34,3.90
2004,10,08,01,35,4.40
2004,10,08,01,36,2.70
2004,10,08,01,37,3.20
2004,10,08,01,38,1.40
2004,10,08,01,39,5.10
2004,10,08,01,40,3.70
2004,10,08,01,41,6.60
2004,10,08,01,42,5.00
2004,10,08,01,43,0.00
2004,10,08,01,44,1.40
2004,10,08,01,45,1.70
2004,10,08,01,46,0.70
2004,10,08,01,47,0.90
2004,10,08,01,48,0.40
2004,10,08,01,49,3.20
2004,10,08,01,50,2.80
2004,10,08,01,51,1.60
2004,10,08,01,52,3.30
2004,10,08,01,53,1.40
2004,10,08,01,54,3.70
2004,10,08,01,55,1.90
2004,10,08,01,56,2.80
2004,10,08,01,57,3.90
2004,10,08,01,58,2.00
2004,10,08,01,59,3.20
2004,10,08,02,00,2.00
2004,10,08,02,01,0.70
2004,10,08,02,02,4.10
2004,10,08,02,03,6.40
2004,10,08,02,04,6.40
2004,10,08,02,05,6.60
2004,10,08,02,06,5.90
2004,10,08,02,07,3.20
2004,10,08,02,08,4.10
2004,10,08,02,09,3.80
2004,10,08,02,10,6.00
2004,10,08,02,11,4.50
2004,10,08,02,12,2.00
2004,10,08,02,13,1.90
2004,10,08,02,14,4.80
2004,10,08,02,15,7.80
2004,10,08,02,16,6.80
2004,10,08,02,17,6.30
2004,10,08,02,18,4.20
2004,10,08,02,19,5.20
2004,10,08,02,20,6.60
2004,10,08,02,21,5.40
2004,10,08,02,22,7.20
2004,10,08,02,23,6.20
2004,10,08,02,24,4.80
2004,10,08,02,25,6.70
2004,10,08,02,26,3.80
2004,10,08,02,27,4.90
2004,10,08,02,28,6.20
2004,10,08,02,29,7.40
2004,10,08,02,30,8.90
2004,10,08,02,31,8.10
2004,10,08,02,32,8.10
2004,10,08,02,33,4.90
2004,10,08,02,34,12.20
2004,10,08,02,35,9.00
2004,10,08,02,36,8.00
2004,10,08,02,37,8.50
2004,10,08,02,38,6.20
2004,10,08,02,39,7.10
2004,10,08,02,40,10.40
2004,10,08,02,41,10.90
2004,10,08,02,42,10.90
2004,10,08,02,43,8.00
2004,10,08,02,44,7.20
2004,10,08,02,45,6.20
2004,10,08,02,46,7.20
2004,10,08,02,47,6.30
2004,10,08,02,48,8.70
2004,10,08,02,49,3.20
2004,10,08,02,50,4.60
2004,10,08,02,51,4.70
2004,10,08,02,52,6.40
2004,10,08,02,53,5.80
2004,10,08,02,54,4.60
2004,10,08,02,55,8.00
2004,10,08,02,56,6.70
2004,10,08,02,57,9.40
2004,10,08,02,58,5.30
2004,10,08,02,59,2.80
2004,10,08,03,00,1.60
2004,10,08,03,01,3.90
2004,10,08,03,02,4.40
2004,10,08,03,03,3.10
2004,10,08,03,04,0.50
2004,10,08,03,05,2.10
2004,10,08,03,06,1.10
2004,10,08,03,07,1.30
2004,10,08,03,08,2.10
2004,10,08,03,09,0.80
2004,10,08,03,10,0.30
2004,10,08,03,11,1.80
2004,10,08,03,12,1.20
2004,10,08,03,13,0.60
2004,10,08,03,14,2.10
2004,10,08,03,15,0.10
2004,10,08,03,16,0.00
2004,10,08,03,17,0.50
2004,10,08,03,18,6.60
2004,10,08,03,19,6.60
2004,10,08,03,20,6.30
2004,10,08,03,21,6.80
2004,10,08,03,22,5.70
2004,10,08,03,23,4.10
2004,10,08,03,24,6.40
2004,10,08,03,25,2.70
2004,10,08,03,26,2.10
2004,10,08,03,27,1.30
2004,10,08,03,28,0.40
2004,10,08,03,29,0.70
2004,10,08,03,30,0.70
2004,10,08,03,31,2.00
2004,10,08,03,32,2.50
2004,10,08,03,33,4.10
2004,10,08,03,34,4.50
2004,10,08,03,35,1.40
2004,10,08,03,36,0.30
2004,10,08,03,37,1.00
2004,10,08,03,38,1.70
2004,10,08,03,39,3.70
2004,10,08,03,40,6.60
2004,10,08,03,41,6.10
2004,10,08,03,42,3.50
2004,10,08,03,43,9.00
2004,10,08,03,44,5.50
2004,10,08,03,45,7.10
2004,10,08,03,46,3.20
2004,10,08,03,47,3.60
2004,10,08,03,48,1.30
2004,10,08,03,49,0.40
2004,10,08,03,50,0.50
2004,10,08,03,51,0.00
2004,10,08,03,52,1.30
2004,10,08,03,53,1.80
2004,10,08,03,54,1.20
2004,10,08,03,55,2.90
2004,10,08,03,56,2.90
2004,10,08,03,57,2.20
2004,10,08,03,58,3.20
2004,10,08,03,59,2.10
2004,10,08,04,00,2.70
2004,10,08,04,01,2.50
2004,10,08,04,02,3.80
2004,10,08,04,03,3.10
2004,10,08,04,04,3.00
2004,10,08,04,05,0.40
2004,10,08,04,06,0.20
2004,10,08,04,07,0.00
2004,10,08,04,08,0.30
2004,10,08,04,09,2.10
2004,10,08,04,10,2.10
2004,10,08,04,11,1.50
2004,10,08,04,12,2.50
2004,10,08,04,13,3.00
2004,10,08,04,14,3.80
2004,10,08,04,15,4.40
2004,10,08,04,16,3.90
2004,10,08,04,17,5.50
2004,10,08,04,18,4.10
2004,10,08,04,19,5.50
2004,10,08,04,20,3.80
2004,10,08,04,21,1.70
2004,10,08,04,22,0.10
2004,10,08,04,23,1.80
2004,10,08,04,24,2.20
2004,10,08,04,25,8.10
2004,10,08,04,26,5.90
2004,10,08,04,27,4.00
2004,10,08,04,28,1.00
2004,10,08,04,29,4.50
2004,10,08,04,30,3.90
2004,10,08,04,31,4.50
2004,10,08,04,32,6.50
2004,10,08,04,33,6.30
2004,10,08,04,34,6.30
2004,10,08,04,35,4.80
2004,10,08,04,36,7.40
2004,10,08,04,37,6.80
2004,10,08,04,38,3.80
2004,10,08,04,39,2.90
2004,10,08,04,40,4.80
2004,10,08,04,41,4.10
2004,10,08,04,42,4.80
2004,10,08,04,43,2.50
2004,10,08,04,44,1.40
2004,10,08,04,45,5.30
2004,10,08,04,46,5.10
2004,10,08,04,47,3.40
2004,10,08,04,48,6.60
2004,10,08,04,49,1.90
2004,10,08,04,50,3.60
2004,10,08,04,51,2.70
2004,10,08,04,52,1.80
2004,10,08,04,53,1.80
2004,10,08,04,54,0.90
2004,10,08,04,55,0.00
2004,10,08,04,56,1.60
2004,10,08,04,57,0.50
2004,10,08,04,58,0.30
2004,10,08,04,59,0.00
2004,10,08,05,00,0.40
2004,10,08,05,01,0.50
2004,10,08,05,02,0.70
2004,10,08,05,03,0.30
2004,10,08,05,04,0.10
2004,10,08,05,05,0.30
2004,10,08,05,06,0.40
2004,10,08,05,07,0.00
2004,10,08,05,08,0.60
2004,10,08,05,09,1.00
2004,10,08,05,10,0.40
2004,10,08,05,11,0.00
2004,10,08,05,12,0.10
2004,10,08,05,13,0.00
2004,10,08,05,14,0.70
2004,10,08,05,15,1.30
2004,10,08,05,16,0.10
2004,10,08,05,17,2.60
2004,10,08,05,18,2.30
2004,10,08,05,19,3.20
2004,10,08,05,20,2.20
2004,10,08,05,21,0.70
2004,10,08,05,22,0.60
2004,10,08,05,23,0.80
2004,10,08,05,24,0.90
2004,10,08,05,25,1.30
2004,10,08,05,26,0.80
2004,10,08,05,27,0.00
2004,10,08,05,28,0.00
2004,10,08,05,29,0.00
2004,10,08,05,30,1.10
2004,10,08,05,31,1.30
2004,10,08,05,32,0.80
2004,10,08,05,33,1.20
2004,10,08,05,34,1.40
2004,10,08,05,35,1.60
2004,10,08,05,36,1.10
2004,10,08,05,37,2.00
2004,10,08,05,38,0.10
2004,10,08,05,39,0.30
2004,10,08,05,40,1.30
2004,10,08,05,41,1.70
2004,10,08,05,42,1.30
2004,10,08,05,43,1.20
2004,10,08,05,44,0.40
2004,10,08,05,45,2.20
2004,10,08,05,46,1.30
2004,10,08,05,47,1.40
2004,10,08,05,48,2.20
2004,10,08,05,49,0.60
2004,10,08,05,50,0.00
2004,10,08,05,51,0.10
2004,10,08,05,52,0.00
2004,10,08,05,53,1.30
2004,10,08,05,54,2.30
2004,10,08,05,55,2.60
2004,10,08,05,56,1.60
2004,10,08,05,57,0.80
2004,10,08,05,58,0.00
2004,10,08,05,59,0.30
2004,10,08,06,00,1.10
2004,10,08,06,01,0.70
2004,10,08,06,02,0.20
2004,10,08,06,03,0.00
2004,10,08,06,04,0.00
2004,10,08,06,05,0.00
2004,10,08,06,06,0.00
2004,10,08,06,07,0.10
2004,10,08,06,08,0.50
2004,10,08,06,09,1.20
2004,10,08,06,10,1.60
2004,10,08,06,11,2.00
2004,10,08,06,12,1.00
2004,10,08,06,13,2.20
2004,10,08,06,14,3.10
2004,10,08,06,15,3.50
2004,10,08,06,16,2.10
2004,10,08,06,17,1.60
2004,10,08,06,18,3.40
2004,10,08,06,19,4.60
2004,10,08,06,20,3.70
2004,10,08,06,21,2.50
2004,10,08,06,22,0.30
2004,10,08,06,23,0.10
2004,10,08,06,24,0.20
2004,10,08,06,25,3.80
2004,10,08,06,26,7.50
2004,10,08,06,27,6.30
2004,10,08,06,28,3.50
2004,10,08,06,29,0.90
2004,10,08,06,30,2.90
2004,10,08,06,31,0.30
2004,10,08,06,32,1.20
2004,10,08,06,33,6.00
2004,10,08,06,34,5.50
2004,10,08,06,35,6.60
2004,10,08,06,36,3.30
2004,10,08,06,37,3.10
2004,10,08,06,38,2.10
2004,10,08,06,39,0.70
2004,10,08,06,40,2.90
2004,10,08,06,41,2.30
2004,10,08,06,42,2.70
2004,10,08,06,43,3.30
2004,10,08,06,44,5.20
2004,10,08,06,45,2.80
2004,10,08,06,46,1.30
2004,10,08,06,47,1.30
2004,10,08,06,48,1.20
2004,10,08,06,49,1.50
2004,10,08,06,50,1.80
2004,10,08,06,51,1.00
2004,10,08,06,52,0.30
2004,10,08,06,53,1.90
2004,10,08,06,54,3.10
2004,10,08,06,55,3.00
2004,10,08,06,56,3.20
2004,10,08,06,57,4.30
2004,10,08,06,58,3.20
2004,10,08,06,59,3.30
2004,10,08,07,00,2.30
2004,10,08,07,01,2.00
2004,10,08,07,02,0.80
2004,10,08,07,03,0.60
2004,10,08,07,04,1.00
2004,10,08,07,05,2.20
2004,10,08,07,06,1.90
2004,10,08,07,07,2.50
2004,10,08,07,08,5.80
2004,10,08,07,09,6.70
2004,10,08,07,10,6.80
2004,10,08,07,11,5.30
2004,10,08,07,12,3.30
2004,10,08,07,13,2.50
2004,10,08,07,14,3.70
2004,10,08,07,15,5.10
2004,10,08,07,16,2.30
2004,10,08,07,17,3.60
2004,10,08,07,18,4.80
2004,10,08,07,19,4.20
2004,10,08,07,20,8.00
2004,10,08,07,21,4.80
2004,10,08,07,22,4.70
2004,10,08,07,23,5.30
2004,10,08,07,24,5.10
2004,10,08,07,25,2.90
2004,10,08,07,26,2.60
2004,10,08,07,27,4.00
2004,10,08,07,28,3.60
2004,10,08,07,29,3.90
2004,10,08,07,30,4.00
2004,10,08,07,31,2.10
2004,10,08,07,32,0.80
2004,10,08,07,33,1.00
2004,10,08,07,34,2.60
2004,10,08,07,35,2.70
2004,10,08,07,36,2.90
2004,10,08,07,37,4.70
2004,10,08,07,38,4.40
2004,10,08,07,39,3.40
2004,10,08,07,40,3.80
2004,10,08,07,41,2.40
2004,10,08,07,42,2.40
2004,10,08,07,43,1.50
2004,10,08,07,44,2.90
2004,10,08,07,45,5.50
2004,10,08,07,46,5.10
2004,10,08,07,47,6.90
2004,10,08,07,48,7.50
2004,10,08,07,49,9.10
2004,10,08,07,50,8.40
2004,10,08,07,51,7.10
2004,10,08,07,52,6.60
2004,10,08,07,53,2.10
2004,10,08,07,54,2.60
2004,10,08,07,55,1.80
2004,10,08,07,56,2.40
2004,10,08,07,57,2.60
2004,10,08,07,58,2.90
2004,10,08,07,59,2.60
2004,10,08,08,00,3.50
2004,10,08,08,01,5.90
2004,10,08,08,02,5.50
2004,10,08,08,03,4.30
2004,10,08,08,04,4.10
2004,10,08,08,05,4.10
2004,10,08,08,06,4.20
2004,10,08,08,07,5.00
2004,10,08,08,08,4.40
2004,10,08,08,09,4.00
2004,10,08,08,10,2.80
2004,10,08,08,11,4.20
2004,10,08,08,12,5.40
2004,10,08,08,13,4.20
2004,10,08,08,14,6.90
2004,10,08,08,15,3.90
2004,10,08,08,16,3.70
2004,10,08,08,17,4.90
2004,10,08,08,18,6.30
2004,10,08,08,19,7.30
2004,10,08,08,20,4.50
2004,10,08,08,21,1.90
2004,10,08,08,22,4.80
2004,10,08,08,23,5.00
2004,10,08,08,24,9.10
2004,10,08,08,25,5.70
2004,10,08,08,26,6.90
2004,10,08,08,27,6.60
2004,10,08,08,28,4.50
2004,10,08,08,29,4.10
2004,10,08,08,30,9.00
2004,10,08,08,31,4.90
2004,10,08,08,32,5.40
2004,10,08,08,33,4.10
2004,10,08,08,34,3.60
2004,10,08,08,35,7.10
2004,10,08,08,36,3.30
2004,10,08,08,37,0.70
2004,10,08,08,38,0.10
2004,10,08,08,39,1.80
2004,10,08,08,40,0.90
2004,10,08,08,41,2.00
2004,10,08,08,42,3.50
2004,10,08,08,43,6.90
2004,10,08,08,44,7.80
2004,10,08,08,45,9.50
2004,10,08,08,46,6.80
2004,10,08,08,47,7.20
2004,10,08,08,48,5.20
2004,10,08,08,49,3.80
2004,10,08,08,50,3.30
2004,10,08,08,51,4.90
2004,10,08,08,52,4.90
2004,10,08,08,53,3.90
2004,10,08,08,54,2.00
2004,10,08,08,55,3.10
2004,10,08,08,56,2.40
2004,10,08,08,57,2.90
2004,10,08,08,58,4.90
2004,10,08,08,59,3.60
2004,10,08,09,00,4.80
2004,10,08,09,01,5.50
2004,10,08,09,02,5.20
2004,10,08,09,03,7.80
2004,10,08,09,04,6.40
2004,10,08,09,05,7.20
2004,10,08,09,06,4.90
2004,10,08,09,07,3.50
2004,10,08,09,08,7.10
2004,10,08,09,09,3.90
2004,10,08,09,10,3.80
2004,10,08,09,11,2.80
2004,10,08,09,12,1.50
2004,10,08,09,13,1.20
2004,10,08,09,14,1.30
2004,10,08,09,15,1.30
2004,10,08,09,16,0.10
2004,10,08,09,17,0.60
2004,10,08,09,18,1.00
2004,10,08,09,19,0.20
2004,10,08,09,20,0.10
2004,10,08,09,21,0.60
2004,10,08,09,22,1.30
2004,10,08,09,23,0.00
2004,10,08,09,24,0.10
2004,10,08,09,25,1.00
2004,10,08,09,26,2.60
2004,10,08,09,27,1.60
2004,10,08,09,28,1.60
2004,10,08,09,29,1.40
2004,10,08,09,30,1.60
2004,10,08,09,31,0.10
2004,10,08,09,32,2.20
2004,10,08,09,33,2.10
2004,10,08,09,34,0.10
2004,10,08,09,35,1.00
2004,10,08,09,36,4.10
2004,10,08,09,37,4.30
2004,10,08,09,38,3.60
2004,10,08,09,39,2.90
2004,10,08,09,40,4.00
2004,10,08,09,41,8.00
2004,10,08,09,42,9.00
2004,10,08,09,43,6.70
2004,10,08,09,44,6.60
2004,10,08,09,45,5.40
2004,10,08,09,46,8.20
2004,10,08,09,47,7.00
2004,10,08,09,48,5.10
2004,10,08,09,49,8.10
2004,10,08,09,50,7.10
2004,10,08,09,51,8.10
2004,10,08,09,52,9.30
2004,10,08,09,53,11.80
2004,10,08,09,54,12.10
2004,10,08,09,55,9.70
2004,10,08,09,56,9.10
2004,10,08,09,57,8.70
2004,10,08,09,58,10.20
2004,10,08,09,59,6.90
2004,10,08,10,00,3.70
2004,10,08,10,01,8.00
2004,10,08,10,02,5.20
2004,10,08,10,03,4.80
2004,10,08,10,04,7.70
2004,10,08,10,05,8.10
2004,10,08,10,06,7.50
2004,10,08,10,07,6.50
2004,10,08,10,08,8.20
2004,10,08,10,09,7.80
2004,10,08,10,10,5.80
2004,10,08,10,11,2.40
2004,10,08,10,12,3.70
2004,10,08,10,13,5.00
2004,10,08,10,14,5.10
2004,10,08,10,15,4.40
2004,10,08,10,16,7.10
2004,10,08,10,17,4.90
2004,10,08,10,18,5.60
2004,10,08,10,19,1.80
2004,10,08,10,20,1.60
2004,10,08,10,21,3.60
2004,10,08,10,22,4.40
2004,10,08,10,23,4.50
2004,10,08,10,24,3.50
2004,10,08,10,25,6.00
2004,10,08,10,26,4.70
2004,10,08,10,27,5.20
2004,10,08,10,28,6.90
2004,10,08,10,29,5.80
2004,10,08,10,30,6.80
2004,10,08,10,31,9.60
2004,10,08,10,32,8.40
2004,10,08,10,33,2.50
2004,10,08,10,34,4.60
2004,10,08,10,35,6.70
2004,10,08,10,36,5.40
2004,10,08,10,37,7.40
2004,10,08,10,38,7.50
2004,10,08,10,39,6.80
2004,10,08,10,40,6.70
2004,10,08,10,41,7.80
2004,10,08,10,42,6.00
2004,10,08,10,43,7.30
2004,10,08,10,44,6.40
2004,10,08,10,45,8.80
2004,10,08,10,46,6.40
2004,10,08,10,47,6.60
2004,10,08,10,48,8.70
2004,10,08,10,49,5.90
2004,10,08,10,50,7.60
2004,10,08,10,51,5.80
2004,10,08,10,52,4.40
2004,10,08,10,53,5.70
2004,10,08,10,54,3.60
2004,10,08,10,55,2.60
2004,10,08,10,56,1.90
2004,10,08,10,57,0.50
2004,10,08,10,58,1.90
2004,10,08,10,59,2.80
2004,10,08,11,00,0.00
2004,10,08,11,01,0.10
2004,10,08,11,02,0.00
2004,10,08,11,03,0.60
2004,10,08,11,04,4.00
2004,10,08,11,05,2.80
2004,10,08,11,06,3.20
2004,10,08,11,07,4.70
2004,10,08,11,08,4.80
2004,10,08,11,09,4.80
2004,10,08,11,10,4.80
2004,10,08,11,11,4.80
2004,10,08,11,12,4.60
2004,10,08,11,13,4.40
2004,10,08,11,14,2.30
2004,10,08,11,15,2.70
2004,10,08,11,16,2.90
2004,10,08,11,17,0.90
2004,10,08,11,18,0.30
2004,10,08,11,19,0.00
2004,10,08,11,20,1.60
2004,10,08,11,21,0.10
2004,10,08,11,22,2.20
2004,10,08,11,23,1.00
2004,10,08,11,24,0.10
2004,10,08,11,25,1.40
2004,10,08,11,26,2.90
2004,10,08,11,27,0.10
2004,10,08,11,28,1.60
2004,10,08,11,29,0.10
2004,10,08,11,30,0.60
2004,10,08,11,31,1.30
2004,10,08,11,32,0.60
2004,10,08,11,33,2.20
2004,10,08,11,34,1.30
2004,10,08,11,35,0.80
2004,10,08,11,36,0.60
2004,10,08,11,37,0.00
2004,10,08,11,38,2.40
2004,10,08,11,39,2.40
2004,10,08,11,40,2.10
2004,10,08,11,41,1.30
2004,10,08,11,42,2.50
2004,10,08,11,43,3.20
2004,10,08,11,44,6.30
2004,10,08,11,45,6.00
2004,10,08,11,46,4.30
2004,10,08,11,47,4.10
2004,10,08,11,48,4.40
2004,10,08,11,49,5.90
2004,10,08,11,50,2.60
2004,10,08,11,51,0.60
2004,10,08,11,52,0.00
2004,10,08,11,53,0.50
2004,10,08,11,54,0.50
2004,10,08,11,55,3.30
2004,10,08,11,56,4.90
2004,10,08,11,57,3.40
2004,10,08,11,58,1.90
2004,10,08,11,59,0.80
2004,10,08,12,00,0.50
2004,10,08,12,01,1.10
2004,10,08,12,02,1.30
2004,10,08,12,03,2.60
2004,10,08,12,04,0.60
2004,10,08,12,05,2.00
2004,10,08,12,06,1.20
2004,10,08,12,07,8.10
2004,10,08,12,08,5.70
2004,10,08,12,09,7.30
2004,10,08,12,10,11.10
2004,10,08,12,11,9.30
2004,10,08,12,12,5.90
2004,10,08,12,13,3.90
2004,10,08,12,14,4.20
2004,10,08,12,15,5.80
2004,10,08,12,16,8.30
2004,10,08,12,17,8.80
2004,10,08,12,18,7.90
2004,10,08,12,19,9.80
2004,10,08,12,20,6.00
2004,10,08,12,21,6.30
2004,10,08,12,22,7.10
2004,10,08,12,23,5.90
2004,10,08,12,24,5.70
2004,10,08,12,25,7.10
2004,10,08,12,26,5.50
2004,10,08,12,27,2.00
2004,10,08,12,28,6.70
2004,10,08,12,29,8.20
2004,10,08,12,30,5.40
2004,10,08,12,31,3.90
2004,10,08,12,32,6.60
2004,10,08,12,33,7.70
2004,10,08,12,34,3.20
2004,10,08,12,35,3.20
2004,10,08,12,36,9.10
2004,10,08,12,37,6.20
2004,10,08,12,38,2.90
2004,10,08,12,39,0.50
2004,10,08,12,40,3.20
2004,10,08,12,41,3.20
2004,10,08,12,42,4.20
2004,10,08,12,43,3.60
2004,10,08,12,44,2.80
2004,10,08,12,45,0.60
2004,10,08,12,46,1.70
2004,10,08,12,47,1.90
2004,10,08,12,48,4.60
2004,10,08,12,49,3.40
2004,10,08,12,50,2.60
2004,10,08,12,51,1.80
2004,10,08,12,52,4.20
2004,10,08,12,53,2.90
2004,10,08,12,54,1.40
2004,10,08,12,55,0.70
2004,10,08,12,56,2.90
2004,10,08,12,57,2.30
2004,10,08,12,58,3.50
2004,10,08,12,59,0.80
2004,10,08,13,00,0.30
2004,10,08,13,01,0.00
2004,10,08,13,02,0.90
2004,10,08,13,03,0.90
2004,10,08,13,04,0.00
2004,10,08,13,05,0.10
2004,10,08,13,06,0.00
2004,10,08,13,07,0.00
2004,10,08,13,08,0.00
2004,10,08,13,09,0.00
2004,10,08,13,10,0.00
2004,10,08,13,11,0.50
2004,10,08,13,12,0.00
2004,10,08,13,13,0.70
2004,10,08,13,14,0.80
2004,10,08,13,15,1.20
2004,10,08,13,16,0.00
2004,10,08,13,17,0.20
2004,10,08,13,18,0.00
2004,10,08,13,19,0.20
2004,10,08,13,52,0.00
2004,10,08,13,53,0.10
2004,10,08,13,54,0.40
2004,10,08,13,55,0.30
2004,10,08,13,56,0.30
2004,10,08,13,57,0.10
2004,10,08,13,58,1.00
2004,10,08,13,59,0.90
2004,10,08,14,00,0.10
2004,10,08,14,01,0.00
2004,10,08,14,02,0.00
2004,10,08,14,03,0.00
2004,10,08,14,04,0.00
2004,10,08,14,05,0.10
2004,10,08,14,06,0.20
2004,10,08,14,07,0.50
2004,10,08,14,08,3.20
2004,10,08,14,09,3.40
2004,10,08,14,10,3.90
2004,10,08,14,11,5.50
2004,10,08,14,12,3.30
2004,10,08,14,13,1.60
2004,10,08,14,14,0.50
2004,10,08,14,15,2.90
2004,10,08,14,16,4.50
2004,10,08,14,17,4.90
2004,10,08,14,18,4.20
2004,10,08,14,19,4.30
2004,10,08,14,20,5.70
2004,10,08,14,21,4.30
2004,10,08,14,22,2.40
2004,10,08,14,23,1.30
2004,10,08,14,24,0.20
2004,10,08,14,25,1.70
2004,10,08,14,26,0.60
2004,10,08,14,27,3.00
2004,10,08,14,28,3.20
2004,10,08,14,29,1.80
2004,10,08,14,30,0.60
2004,10,08,14,31,1.60
2004,10,08,14,32,1.90
2004,10,08,14,33,0.60
2004,10,08,14,34,0.00
2004,10,08,14,35,0.10
2004,10,08,14,36,0.20
2004,10,08,14,37,1.70
2004,10,08,14,38,1.10
2004,10,08,14,39,0.10
2004,10,08,14,46,3.20
2004,10,08,14,47,5.00
2004,10,08,14,48,4.00
2004,10,08,14,49,8.00
2004,10,08,14,50,6.00
2004,10,08,14,51,1.80
2004,10,08,14,52,4.30
2004,10,08,14,53,3.50
2004,10,08,14,54,1.00
2004,10,08,14,55,4.80
2004,10,08,14,56,8.90
2004,10,08,14,57,8.90
2004,10,08,14,58,12.90
2004,10,08,14,59,11.10
2004,10,08,15,00,9.90
2004,10,08,15,01,7.60
2004,10,08,15,02,5.00
2004,10,08,15,03,4.20
2004,10,08,15,04,6.40
2004,10,08,15,05,3.50
2004,10,08,15,06,6.10
2004,10,08,15,07,5.20
2004,10,08,15,08,4.30
2004,10,08,15,09,2.30
2004,10,08,15,10,2.20
2004,10,08,15,11,3.60
2004,10,08,15,12,4.20
2004,10,08,15,13,4.70
2004,10,08,15,14,7.10
2004,10,08,15,15,4.90
2004,10,08,15,16,6.10
2004,10,08,15,17,5.60
2004,10,08,15,18,11.80
2004,10,08,15,19,5.70
2004,10,08,15,20,2.30
2004,10,08,15,21,3.40
2004,10,08,15,22,7.30
2004,10,08,15,23,4.40
2004,10,08,15,24,2.40
2004,10,08,15,25,1.60
2004,10,08,15,26,2.80
2004,10,08,15,27,1.00
2004,10,08,15,28,1.70
2004,10,08,15,29,2.40
2004,10,08,15,30,2.70
2004,10,08,15,31,3.40
2004,10,08,15,32,2.80
2004,10,08,15,33,2.60
2004,10,08,15,34,3.00
2004,10,08,15,35,2.30
2004,10,08,15,36,2.90
2004,10,08,15,37,3.40
2004,10,08,15,38,4.40
2004,10,08,15,39,7.30
2004,10,08,15,40,4.90
2004,10,08,15,41,4.90
2004,10,08,15,42,7.70
2004,10,08,15,43,8.90
2004,10,08,15,44,9.00
2004,10,08,15,45,5.40
2004,10,08,15,46,10.70
2004,10,08,15,47,9.10
2004,10,08,15,48,11.10
2004,10,08,15,49,11.90
2004,10,08,15,50,15.80
2004,10,08,15,51,16.60
2004,10,08,15,52,11.70
2004,10,08,15,53,14.00
2004,10,08,15,54,11.70
2004,10,08,15,55,12.70
2004,10,08,15,56,12.00
2004,10,08,15,57,9.10
2004,10,08,15,58,11.00
2004,10,08,15,59,12.30
2004,10,08,16,00,12.10
2004,10,08,16,01,8.90
2004,10,08,16,02,6.60
2004,10,08,16,03,11.00
2004,10,08,16,04,10.20
2004,10,08,16,05,16.00
2004,10,08,16,06,11.30
2004,10,08,16,07,8.70
2004,10,08,16,08,12.30
2004,10,08,16,09,9.60
2004,10,08,16,10,11.70
2004,10,08,16,11,9.70
2004,10,08,16,12,9.70
2004,10,08,16,13,12.20
2004,10,08,16,14,10.70
2004,10,08,16,15,9.80
2004,10,08,16,16,7.20
2004,10,08,16,17,2.50
2004,10,08,16,18,3.30
2004,10,08,16,19,3.60
2004,10,08,16,20,1.60
2004,10,08,16,21,2.10
2004,10,08,16,22,1.10
2004,10,08,16,23,1.20
2004,10,08,16,24,0.00
2004,10,08,16,25,0.00
2004,10,08,16,26,1.10
2004,10,08,16,27,1.10
2004,10,08,16,28,1.30
2004,10,08,16,29,7.50
2004,10,08,16,30,5.10
2004,10,08,16,31,4.10
2004,10,08,16,32,4.80
2004,10,08,16,33,5.90
2004,10,08,16,34,7.50
2004,10,08,16,35,10.90
2004,10,08,16,36,7.70
2004,10,08,16,37,6.20
2004,10,08,16,38,6.20
2004,10,08,16,39,9.40
2004,10,08,16,40,7.20
2004,10,08,16,41,7.40
2004,10,08,16,42,6.70
2004,10,08,16,43,6.70
2004,10,08,16,44,7.90
2004,10,08,16,45,5.90
2004,10,08,16,46,4.70
2004,10,08,16,47,5.40
2004,10,08,16,48,8.80
2004,10,08,16,49,9.60
2004,10,08,16,50,5.70
2004,10,08,16,51,5.50
2004,10,08,16,52,9.10
2004,10,08,16,53,9.20
2004,10,08,16,54,8.10
2004,10,08,16,55,8.30
2004,10,08,16,56,4.90
2004,10,08,16,57,4.20
2004,10,08,16,58,1.80
2004,10,08,16,59,5.90
2004,10,08,17,00,6.10
2004,10,08,17,01,5.10
2004,10,08,17,02,8.10
2004,10,08,17,03,5.90
2004,10,08,17,04,7.40
2004,10,08,17,05,6.70
2004,10,08,17,06,7.10
2004,10,08,17,07,7.70
2004,10,08,17,08,9.10
2004,10,08,17,09,9.10
2004,10,08,17,10,7.70
2004,10,08,17,11,6.50
2004,10,08,17,12,7.20
2004,10,08,17,13,8.80
2004,10,08,17,14,7.70
2004,10,08,17,15,6.60
2004,10,08,17,16,5.80
2004,10,08,17,17,4.50
2004,10,08,17,18,3.30
2004,10,08,17,19,3.50
2004,10,08,17,20,5.20
2004,10,08,17,21,4.10
2004,10,08,17,22,3.70
2004,10,08,17,23,3.40
2004,10,08,17,24,3.00
2004,10,08,17,25,3.10
2004,10,08,17,26,5.70
2004,10,08,17,27,8.00
2004,10,08,17,28,9.20
2004,10,08,17,29,8.70
2004,10,08,17,30,7.30
2004,10,08,17,31,6.80
2004,10,08,17,32,10.40
2004,10,08,17,33,11.10
2004,10,08,17,34,6.50
2004,10,08,17,35,6.70
2004,10,08,17,36,3.50
2004,10,08,17,37,6.50
2004,10,08,17,38,10.50
2004,10,08,17,39,10.80
2004,10,08,17,40,7.00
2004,10,08,17,41,4.50
2004,10,08,17,42,2.90
2004,10,08,17,43,4.50
2004,10,08,17,44,3.60
2004,10,08,17,45,3.60
2004,10,08,17,46,8.00
2004,10,08,17,47,13.40
2004,10,08,17,48,9.90
2004,10,08,17,49,7.00
2004,10,08,17,50,10.20
2004,10,08,17,51,11.00
2004,10,08,17,52,8.20
2004,10,08,17,53,1.30
2004,10,08,17,54,3.20
2004,10,08,17,55,1.40
2004,10,08,17,56,7.60
2004,10,08,17,57,6.70
2004,10,08,17,58,5.80
2004,10,08,17,59,5.80
2004,10,08,18,00,5.30
2004,10,08,18,01,4.20
2004,10,08,18,02,2.70
2004,10,08,18,03,3.20
2004,10,08,18,04,2.50
2004,10,08,18,05,0.30
2004,10,08,18,06,0.40
2004,10,08,18,07,3.00
2004,10,08,18,08,2.30
2004,10,08,18,09,3.10
2004,10,08,18,10,4.30
2004,10,08,18,11,3.60
2004,10,08,18,12,3.30
2004,10,08,18,13,6.50
2004,10,08,18,14,8.10
2004,10,08,18,15,6.10
2004,10,08,18,16,6.80
2004,10,08,18,17,6.20
2004,10,08,18,18,3.00
2004,10,08,18,19,2.70
2004,10,08,18,20,3.00
2004,10,08,18,21,5.90
2004,10,08,18,22,4.70
2004,10,08,18,23,4.90
2004,10,08,18,24,2.20
2004,10,08,18,25,8.30
2004,10,08,18,26,5.20
2004,10,08,18,27,4.50
2004,10,08,18,28,4.80
2004,10,08,18,29,5.10
2004,10,08,18,30,2.90
2004,10,08,18,31,5.90
2004,10,08,18,32,4.00
2004,10,08,18,33,4.80
2004,10,08,18,34,4.40
2004,10,08,18,35,2.80
2004,10,08,18,36,1.20
2004,10,08,18,37,0.90
2004,10,08,18,38,0.20
2004,10,08,18,39,3.70
2004,10,08,18,40,4.20
2004,10,08,18,41,5.60
2004,10,08,18,42,3.90